Flag for Namibia Weather past 2 weeks in Swakopmund, Namibia

Now
57 °F

Overcast.


Feels Like: 57 °F
Forecast: 56 / 71 °F
Wind: 5 mph from Northwest

Location: Walvis Bay

Current Time: Sep 2, 2014 at 10:40:22 AM

Latest Report: Sep 2, 2014 at 10:00 AM


Visibility: N/A

Pressure: 30.09 "Hg

Humidity: 82%

Dew point: 52 °F

Location of SwakopmundLocation

Historic Weather in Swakopmund — Graph

°F

Swakopmund temperature yesterday

Maximum temperature yesterday: 66 °F (at 12:00 PM)
Minimum temperature yesterday: 52 °F (at 12:00 AM)
Average temperature yesterday: 56 °F

Past Weeks' High & Low Weather Summary

 TemperatureHumidityPressure
High93 °F (Aug 30, 1:00 PM)100% (Aug 23, 11:00 PM)30.21 "Hg (Aug 23, 11:00 PM)
Low41 °F (Aug 26, 4:00 AM)6% (Aug 30, 11:00 AM)29.92 "Hg (Aug 30, 3:00 PM)
Average56 °F71%30.07 "Hg
* Reported Aug 18 9:00 AM — Sep 2 9:00 AM, Swakopmund, Weather by CustomWeather, © 2014

Note: Actual official high and low records may vary slightly from our data, if they occured in-between our weather recording intervals... More about our weather records

Advertising

Swakopmund weather history for previous 24 hours

 ConditionsComfort  
Time TempWeatherWind HumidityBarometerVisibility
9:00 AM
Sep 2
55 °FLow clouds.6 mph88%30.09 "HgN/A
8:00 AM55 °FLow clouds.5 mph88%30.09 "HgN/A
7:00 AM54 °FLow clouds.3 mph94%30.09 "HgN/A
6:00 AM54 °FLow clouds.5 mph94%30.09 "HgN/A
5:00 AM54 °FCool.7 mph94%30.09 "HgN/A
4:00 AM54 °FCool.7 mph88%30.09 "HgN/A
3:00 AM54 °FCool.8 mph88%30.09 "HgN/A
2:00 AM54 °FCool.8 mph88%30.12 "HgN/A
1:00 AM54 °FCool.6 mph88%30.12 "HgN/A
12:00 AM54 °FCool.8 mph88%30.15 "HgN/A
11:00 PM
Sep 1
54 °FCool.8 mph88%30.15 "HgN/A
10:00 PM54 °FCool.6 mph88%30.15 "HgN/A
9:00 PM54 °FCool.7 mph82%30.15 "HgN/A
8:00 PM54 °FCool.6 mph82%30.12 "HgN/A
7:00 PM54 °FOvercast.6 mph82%30.09 "HgN/A
6:00 PM55 °FOvercast.3 mph82%30.09 "HgN/A
5:00 PM57 °FCool.7 mph77%30.07 "HgN/A
3:00 PM61 °FSunny.12 mph68%30.01 "Hg10 mi
2:00 PM63 °FSunny.12 mph64%30.01 "Hg10 mi
1:00 PM64 °FSunny.10 mph60%30.04 "Hg10 mi
12:00 PM66 °FMild.8 mph56%30.04 "HgN/A
11:00 AM64 °FSunny.3 mph56%30.07 "Hg10 mi
10:00 AM61 °FSunny.3 mph68%30.09 "Hg10 mi
Weather by CustomWeather, © 2014

See weather overviewHow to use our weather pages